Regional Weather Roundup
Issued by NWS

Home | Current Version | Previous Version | Text Only | Print | Product List | Glossary Off
Versions: 1 2 3 4 5 6 7 8 9 10 11 12 13 14 15 16 17 18 19 20 21 22 23 24 25 26 27 28 29 30 31 32 33 34 35 36 37 38 39 40 41 42 43 44 45 46 47 48 49 50

000
ASUS43 KFSD 010910
RWRSD

WEATHER ROUNDUP FOR SOUTH DAKOTA
NATIONAL WEATHER SERVICE SIOUX FALLS SD
400 AM CDT MON SEP 01 2014

NOTE: "FAIR" INDICATES FEW OR NO CLOUDS BELOW 12,000 FEET WITH NO
SIGNIFICANT WEATHER AND/OR OBSTRUCTIONS TO VISIBILITY.


SDZ001>005-009-010-012>017-011000-
NORTHWEST AND NORTH CENTRAL SOUTH DAKOTA

CITY           SKY/WX    TMP DP  RH WIND       PRES   REMARKS
BUFFALO          N/A     50  47  89 W9        29.81S
FAITH            N/A     50  48  93 W5        29.85R
MOBRIDGE       CLEAR     54  53  97 CALM      29.76R
$$

SDZ012>016-024>037-041>051-057-063-072>074-011000-
SOUTHWEST AND SOUTH CENTRAL SOUTH DAKOTA

CITY           SKY/WX    TMP DP  RH WIND       PRES   REMARKS
RAPID CTY ARPT PTCLDY    49  46  90 NW7       29.90S
PIERRE         CLEAR     57  55  93 W9        29.79R
CUSTER         CLEAR     44  39  82 NW3       29.99F
ELLSWORTH AFB  PTCLDY    51  47  85 W6        29.89S
PHILIP         CLEAR     51  49  92 W6        29.87R
PINE RIDGE     CLEAR     49  48  97 W5        29.93R
WINNER         FAIR      58  55  90 W10       29.82R
$$

SDZ004>011-016>023-039-040-011000-
NORTHEAST SOUTH DAKOTA

CITY           SKY/WX    TMP DP  RH WIND       PRES   REMARKS
ABERDEEN       MOCLDY    59  56  89 NW10      29.73S
WATERTOWN      CLOUDY    60  60 100 W3        29.73S
SISSETON         N/A     62  58  86 NW7       29.70R
$$

SDZ017-020-022-023-036>040-048>070-011000-
SOUTHEAST SOUTH DAKOTA

CITY           SKY/WX    TMP DP  RH WIND       PRES   REMARKS
SIOUX FALLS    LGT RAIN  63  61  93 NW8       29.71S
HURON          MOCLDY    59  58  96 W5        29.73S
CHAMBERLAIN    PTCLDY    60  56  86 NW12G18   29.79R
MITCHELL       CLOUDY    61  60  97 NW3       29.74F
YANKTON        CLOUDY    63  59  88 NW9       29.72F
$$

ABBREVIATIONS USED IN REMARKS
   TC - TEMPERATURE IN CELSIUS
  WCI - WIND CHILL INDEX
   HX - HEAT INDEX
  VSB - VISIBILITY




USA.gov is the U.S. government's official web portal to all federal, state and local government web resources and services.